Home   Weather   Ulm   Past weeks

Flag for Germany Past Weather in Ulm, Baden-Württemberg, Germany — Yesterday and Last 2 Weeks

Now
63 °F

Passing clouds.


Feels Like: 63 °F
Forecast: 55 / 78 °F
Wind: 6 mph from Northeast

Location: Laupheim Airport

Current Time: Aug 30, 2016 at 10:54:40 PM

Latest Report: Aug 30, 2016 at 9:20 PM


Visibility: N/A

Pressure: 30.21 "Hg

Humidity: 77%

Dew Point: 55 °F

Location of UlmLocation

Past Weather in Ulm — Graph

°F

Ulm Temperature Yesterday

Maximum temperature yesterday: 72 °F (at 1:20 PM)
Minimum temperature yesterday: 63 °F (at 11:20 PM)
Average temperature yesterday: 67 °F

High & Low Weather Summary for the Past Weeks

 TemperatureHumidityPressure
High88 °F (Aug 26, 4:20 PM)100% (Aug 26, 5:20 AM)30.42 "Hg (Aug 26, 5:20 AM)
Low50 °F (Aug 22, 6:20 AM)40% (Aug 26, 5:20 PM)29.86 "Hg (Aug 18, 4:20 AM)
Average67 °F74%30.11 "Hg
* Reported Aug 15 9:20 PM — Aug 30 9:20 PM, Ulm, Weather by CustomWeather, © 2016

Note: Actual official high and low records may vary slightly from our data, if they occured in-between our weather recording intervals... More about our weather records

Advertising

Ulm Weather History for the Previous 24 Hours

Scroll right to see more
 ConditionsComfort  
Time TempWeatherWind HumidityBarometerVisibility
9:20 PM
Tue, Aug 30
63 °FPassing clouds.6 mph77%30.21 "HgN/A
8:20 PM66 °FPassing clouds.5 mph68%30.21 "HgN/A
7:20 PM70 °FPassing clouds.8 mph57%30.18 "HgN/A
6:20 PM72 °FPassing clouds.10 mph53%30.18 "HgN/A
5:20 PM72 °FPassing clouds.13 mph53%30.18 "HgN/A
4:20 PM73 °FScattered clouds.13 mph50%30.21 "HgN/A
3:20 PM72 °FScattered clouds.14 mph53%30.21 "HgN/A
2:20 PM72 °FScattered clouds.13 mph53%30.24 "HgN/A
1:20 PM72 °FScattered clouds.12 mph57%30.24 "HgN/A
12:20 PM70 °FPassing clouds.15 mph57%30.24 "HgN/A
11:20 AM66 °FPassing clouds.13 mph68%30.24 "HgN/A
10:20 AM64 °FPassing clouds.9 mph78%30.27 "HgN/A
9:20 AM63 °FPassing clouds.8 mph77%30.24 "HgN/A
8:20 AM59 °FPassing clouds.7 mph82%30.24 "HgN/A
7:20 AM57 °FPartly cloudy.7 mph88%30.24 "HgN/A
6:20 AM57 °FPassing clouds.5 mph88%30.21 "HgN/A
5:20 AM59 °FPassing clouds.3 mph82%30.21 "HgN/A
4:20 AM59 °FPassing clouds.2 mph88%30.21 "HgN/A
3:20 AM57 °FPassing clouds.2 mph94%30.21 "HgN/A
2:20 AM59 °FPassing clouds.No wind94%30.21 "HgN/A
1:20 AM63 °FFog.1 mph94%30.21 "HgN/A
12:20 AM63 °FFog.2 mph94%30.21 "HgN/A
11:20 PM
Mon, Aug 29
63 °FPassing clouds.3 mph100%30.21 "HgN/A
10:20 PM64 °FPartly cloudy.1 mph94%30.21 "HgN/A
Weather by CustomWeather, © 2016

See weather overviewHow to use our weather pages